IZ1UKX-13 Weather Reports


time (UTC)temp
F
wind
direction
speed
knots
gust
knots
rain 1hr
in
rain 24hr
in
rain mn
in
humidity
%
barometer
mb
20260506034217 52 158 0.9 1.7 0.00 0.71 0.00 96 1024.9
20260506033717 52 158 0.9 1.7 0.00 0.71 0.00 95 1024.9
20260506033217 52 158 0.9 1.7 0.00 0.71 0.00 96 1024.9
20260506032717 52 113 0.9 0.0 0.00 0.71 0.00 96 1024.9
20260506032217 52 158 1.7 1.7 0.00 0.71 0.00 96 1024.9
20260506031718 52 158 0.9 0.0 0.00 0.71 0.00 97 1024.9
20260506031218 52 158 0.0 0.0 0.00 0.71 0.00 97 1024.9
20260506030717 52 158 0.0 0.0 0.00 0.71 0.00 97 1024.9
20260506030217 53 158 0.0 0.0 0.00 0.71 0.00 97 1024.5
20260506025717 53 158 0.0 0.0 0.09 0.71 0.00 97 1024.5
20260506025217 53 158 0.0 0.0 0.08 0.69 0.00 97 1024.9
20260506024717 52 158 0.0 0.0 0.08 0.69 0.00 97 1024.9
20260506024218 53 158 0.0 0.0 0.08 0.69 0.00 97 1024.9
20260506023717 53 158 0.0 0.0 0.08 0.69 0.00 97 1024.9
20260506023217 53 158 0.0 0.0 0.08 0.69 0.00 97 1024.5
20260506022717 53 158 0.0 0.0 0.08 0.69 0.00 97 1024.5
20260506022217 53 158 0.0 0.0 0.06 0.68 0.00 97 1024.5
20260506021717 53 158 0.0 0.0 0.05 0.66 0.00 97 1024.5
20260506021218 53 158 0.0 0.0 0.05 0.66 0.00 97 1024.5
20260506020717 53 158 0.0 0.0 0.03 0.65 0.00 97 1024.5
20260506020218 53 158 0.0 0.0 0.00 0.61 0.00 97 1024.5
20260506015717 53 158 0.0 0.0 0.44 0.60 0.00 97 1024.5
20260506015217 53 158 0.0 0.0 0.41 0.57 0.00 97 1024.5
20260506014718 53 158 0.0 0.0 0.38 0.54 0.00 97 1024.5
20260506014217 53 158 0.0 0.0 0.30 0.46 0.00 97 1024.5
20260506013717 53 158 0.9 0.0 0.25 0.41 0.00 97 1024.5
20260506013218 53 158 0.0 0.0 0.19 0.35 0.00 97 1024.5
20260506012717 53 158 0.9 1.7 0.19 0.35 0.00 97 1024.5
20260506012217 53 158 0.0 0.0 0.17 0.33 0.00 97 1024.5
20260506011717 53 158 0.0 0.0 0.16 0.31 0.00 97 1024.5
20260506011217 53 158 0.0 0.0 0.09 0.25 0.00 97 1024.5
20260506010718 53 158 0.0 0.0 0.05 0.20 0.00 97 1024.5
20260506010217 53 158 0.0 0.0 0.02 0.17 0.00 96 1024.5
20260506005717 53 158 0.0 0.0 0.06 0.13 0.00 96 1024.5
20260506005217 53 158 0.0 0.0 0.05 0.11 0.00 96 1024.5
20260506004717 53 158 0.0 0.0 0.03 0.09 0.00 96 1024.5
20260506004218 53 158 0.0 0.0 0.00 0.06 0.00 96 1024.5
20260506003717 53 158 0.0 0.0 0.00 0.06 0.00 96 1024.5
20260506003217 53 158 0.0 0.0 0.00 0.06 0.00 96 1024.5
20260506002717 53 158 0.0 0.0 0.00 0.06 0.00 96 1024.5
20260506002217 53 158 0.0 0.0 0.00 0.06 0.00 96 1024.5
20260506001717 53 158 0.0 0.0 0.00 0.06 0.00 96 1024.5
20260506001217 53 158 0.0 0.0 0.00 0.06 0.00 95 1024.5
20260506000717 53 158 0.0 0.0 0.00 0.06 0.00 96 1024.5
20260506000219 53 158 0.0 0.0 0.00 0.06 0.00 95 1024.5
20260505235717 53 158 0.0 0.0 0.03 0.06 0.00 95 1024.5
20260505235217 53 158 0.0 0.0 0.03 0.06 0.00 95 1024.5
20260505234717 53 158 0.0 0.0 0.03 0.06 0.00 95 1024.5
20260505234217 53 158 0.0 0.0 0.03 0.06 0.00 95 1024.5
20260505233717 53 158 0.0 0.0 0.03 0.06 0.00 95 1024.5
20260505233217 53 158 0.0 0.0 0.02 0.05 0.00 95 1024.5
20260505232717 53 158 0.0 0.0 0.02 0.05 0.00 95 1024.5
20260505232217 53 158 0.0 0.0 0.00 0.03 0.00 95 1024.5
20260505231717 53 158 0.0 0.0 0.00 0.03 0.00 95 1024.5
20260505231218 53 158 0.0 0.0 0.00 0.03 0.00 95 1024.5
20260505230717 53 158 0.0 0.0 0.00 0.03 0.00 95 1024.5
20260505230217 53 158 0.0 0.0 0.00 0.03 0.00 95 1024.5
20260505225717 53 158 0.0 0.0 0.03 0.03 0.00 95 1024.5
20260505225217 53 158 0.0 0.0 0.02 0.02 0.00 94 1024.5
20260505224717 53 158 0.0 0.0 0.02 0.02 0.00 94 1024.5
20260505224217 53 158 0.0 0.0 0.02 0.02 0.00 94 1024.5
20260505223717 53 158 0.0 0.0 0.00 0.00 0.00 94 1024.5
20260505223217 53 158 0.0 0.0 0.00 0.00 0.00 94 1024.5
20260505222717 53 158 0.0 0.0 0.00 0.00 0.00 94 1024.5
20260505222217 53 158 0.0 0.0 0.00 0.00 0.00 93 1024.5
20260505221717 53 158 0.0 0.0 0.00 0.00 0.00 94 1024.5
20260505221217 53 158 0.0 0.0 0.00 0.00 0.00 93 1024.5
20260505220717 53 158 0.0 0.0 0.00 0.00 0.00 93 1024.5
20260505220217 53 158 0.0 0.0 0.00 0.00 0.00 93 1024.5
20260505215717 53 158 0.0 0.0 0.00 0.00 0.00 93 1024.5
20260505215217 53 158 0.0 0.0 0.00 0.00 0.00 93 1024.5
20260505214717 53 158 0.0 0.0 0.00 0.00 0.00 93 1024.5
20260505214217 54 158 0.0 0.0 0.00 0.00 0.00 92 1024.5
20260505213717 54 158 0.0 0.0 0.00 0.00 0.00 92 1024.5
20260505213217 54 158 0.0 0.0 0.00 0.00 0.00 92 1024.5
20260505212717 54 158 0.0 0.0 0.00 0.00 0.00 92 1024.5
20260505212217 54 158 0.0 0.0 0.00 0.00 0.00 92 1024.5
20260505211717 54 158 0.0 0.0 0.00 0.00 0.00 92 1024.5
20260505211218 54 158 0.0 0.0 0.00 0.00 0.00 92 1024.5
20260505210717 55 158 0.9 1.7 0.00 0.00 0.00 92 1024.5
20260505210217 55 158 0.9 1.7 0.00 0.00 0.00 92 1024.5
20260505205717 55 158 0.0 0.0 0.00 0.00 0.00 92 1024.5
20260505205217 55 158 0.0 0.0 0.00 0.00 0.00 92 1024.5
20260505204718 54 158 0.0 0.0 0.00 0.00 0.00 92 1024.5
20260505204217 55 158 0.0 0.0 0.00 0.00 0.00 92 1024.5
20260505203717 55 158 0.0 0.0 0.00 0.00 0.00 92 1024.5
20260505203217 55 158 0.0 0.0 0.00 0.00 0.00 92 1024.5
20260505202717 55 158 0.0 0.0 0.00 0.00 0.00 92 1024.5
20260505202217 55 158 0.0 0.0 0.00 0.00 0.00 92 1024.5
20260505201717 55 158 0.0 0.0 0.00 0.00 0.00 92 1024.5
20260505201217 55 158 0.0 0.0 0.00 0.00 0.00 92 1024.5
20260505200717 55 158 0.0 0.0 0.00 0.00 0.00 92 1024.5
20260505200217 55 158 0.0 0.0 0.00 0.00 0.00 93 1024.5
20260505195717 56 158 0.9 0.0 0.00 0.00 0.00 93 1024.5
20260505195217 56 158 0.0 0.0 0.00 0.00 0.00 93 1024.5
20260505194717 56 158 0.0 0.0 0.00 0.00 0.00 93 1024.5
20260505194217 56 158 0.0 0.0 0.00 0.00 0.00 93 1024.5
20260505193717 56 158 0.0 0.0 0.00 0.00 0.00 93 1024.5
20260505193217 56 158 0.0 0.0 0.00 0.00 0.00 93 1024.5
20260505192717 56 158 0.0 0.0 0.00 0.00 0.00 93 1024.5
20260505192217 56 158 0.0 0.0 0.00 0.00 0.00 92 1024.5
20260505191717 56 158 0.0 0.0 0.00 0.00 0.00 92 1024.5
20260505191217 56 158 0.0 0.0 0.00 0.00 0.00 92 1024.0
20260505190717 56 158 0.0 0.0 0.00 0.00 0.00 92 1024.0
20260505190217 56 158 0.0 0.0 0.00 0.00 0.00 92 1024.0
20260505185717 56 158 0.0 0.0 0.00 0.00 0.00 92 1024.0
20260505185217 56 158 0.0 0.0 0.00 0.00 0.00 92 1024.0
20260505184717 56 158 0.0 0.0 0.00 0.00 0.00 91 1024.0
20260505184217 56 158 0.0 0.0 0.00 0.00 0.00 91 1024.0
20260505183717 57 158 0.0 0.0 0.00 0.00 0.00 91 1024.0
20260505183217 57 158 0.0 0.0 0.00 0.00 0.00 91 1024.0
20260505182717 57 158 0.0 0.0 0.00 0.00 0.00 91 1024.0
20260505182217 57 158 0.9 0.0 0.00 0.00 0.00 90 1024.0
20260505181717 57 158 0.9 1.7 0.00 0.00 0.00 90 1024.0
20260505181217 57 158 0.0 0.0 0.00 0.00 0.00 90 1024.0
20260505180717 57 158 0.0 0.0 0.00 0.00 0.00 89 1024.0
20260505180217 58 158 1.7 0.0 0.00 0.00 0.00 89 1024.0
20260505175717 58 158 0.0 0.0 0.00 0.00 0.00 88 1024.0
20260505175217 58 158 1.7 1.7 0.00 0.00 0.00 88 1024.0
20260505174717 58 158 0.0 0.0 0.00 0.00 0.00 87 1024.0
20260505174217 59 158 0.0 1.7 0.00 0.00 0.00 86 1024.0
20260505173717 59 158 0.0 1.7 0.00 0.00 0.00 86 1024.0
20260505173217 59 158 0.9 0.0 0.00 0.00 0.00 85 1024.0
20260505172717 60 158 0.0 0.0 0.00 0.00 0.00 85 1024.0
20260505172217 60 158 0.0 0.0 0.00 0.00 0.00 85 1024.0
20260505171717 60 158 0.0 0.0 0.00 0.00 0.00 84 1023.6
20260505171217 60 158 0.0 0.0 0.00 0.00 0.00 84 1023.6
20260505170717 60 158 0.0 0.0 0.00 0.00 0.00 84 1023.6
20260505170217 60 158 0.0 0.0 0.00 0.00 0.00 84 1023.6
20260505165717 60 158 0.0 0.0 0.00 0.00 0.00 83 1023.6
20260505165217 60 158 0.0 0.0 0.00 0.00 0.00 83 1023.6
20260505164717 61 158 0.0 0.0 0.00 0.00 0.00 82 1023.6
20260505164217 61 158 0.0 0.0 0.00 0.00 0.00 81 1023.6
20260505163717 61 158 0.0 1.7 0.00 0.00 0.00 81 1023.6
20260505163217 61 158 0.9 0.0 0.00 0.00 0.00 80 1023.6
20260505162717 62 158 0.0 1.7 0.00 0.00 0.00 79 1023.6
20260505162217 62 158 0.0 0.0 0.00 0.00 0.00 79 1023.6
20260505161717 63 158 0.0 0.0 0.00 0.00 0.00 78 1023.6
20260505161217 63 158 0.9 1.7 0.00 0.00 0.00 78 1023.6
20260505160717 64 158 1.7 3.5 0.00 0.00 0.00 77 1023.6
20260505160217 64 248 0.0 0.0 0.00 0.00 0.00 78 1023.6
20260505153217 61 158 1.7 1.7 0.00 0.00 0.00 83 1023.6
20260505152718 61 158 0.0 0.0 0.00 0.00 0.00 83 1023.6
20260505152217 61 158 0.9 0.0 0.00 0.00 0.00 82 1023.6
20260505151717 62 158 1.7 1.7 0.00 0.00 0.00 81 1023.6
20260505151217 62 158 0.9 0.0 0.00 0.00 0.00 80 1023.6
20260505150717 62 158 0.0 0.0 0.00 0.00 0.00 80 1023.6
20260505150217 62 293 0.9 0.0 0.00 0.00 0.00 78 1023.6
20260505140217 62 293 0.0 0.0 0.00 0.00 0.00 81 1023.6
20260505130217 63 293 0.0 0.0 0.00 0.00 0.00 82 1023.6
20260505124717 60 293 0.9 0.0 0.00 0.00 0.00 82 1023.6
20260505124217 60 293 0.9 1.7 0.00 0.00 0.00 84 1024.0
20260505123717 59 293 1.7 1.7 0.00 0.00 0.00 83 1024.0
20260505123217 60 293 1.7 1.7 0.00 0.00 0.00 82 1024.0
20260505122717 60 293 0.9 0.0 0.00 0.00 0.00 85 1024.0
20260505122217 58 293 0.9 1.7 0.00 0.00 0.00 85 1024.0
20260505121717 57 293 1.7 1.7 0.00 0.00 0.00 85 1024.0
20260505121217 58 293 0.0 1.7 0.00 0.00 0.00 85 1024.0
20260505120717 58 293 1.7 1.7 0.00 0.00 0.00 85 1024.0
20260505120217 58 293 0.9 0.0 0.00 0.00 0.00 85 1024.0
20260505115717 58 293 1.7 6.1 0.00 0.00 0.00 84 1024.0
20260505115217 58 293 1.7 1.7 0.00 0.00 0.00 85 1024.0
20260505114717 58 293 1.7 1.7 0.00 0.00 0.00 85 1024.0
20260505114217 58 315 0.9 0.0 0.00 0.00 0.00 86 1024.0
20260505113717 57 315 0.9 0.0 0.00 0.00 0.00 87 1023.8
20260505113652 57 315 0.9 0.0 0.00 0.09 0.00 87 1024.0
20260505113151 57 315 0.9 0.0 0.00 0.09 0.00 86 1024.0
20260505112651 57 315 1.7 3.5 0.00 0.09 0.00 84 1024.0
20260505112151 59 315 0.9 1.7 0.00 0.09 0.00 85 1024.0
20260505111651 58 315 0.0 0.0 0.00 0.09 0.00 88 1024.0
20260505111151 58 315 0.0 0.0 0.00 0.09 0.00 88 1024.0
20260505110652 57 293 0.9 1.7 0.00 0.09 0.00 89 1024.0
20260505110151 56 293 1.7 1.7 0.00 0.09 0.00 90 1024.0
20260505102152 53 248 0.9 1.7 0.05 0.09 0.00 94 1024.5
20260505101651 53 248 0.9 1.7 0.03 0.08 0.00 94 1024.5
20260505101151 53 248 0.9 0.0 0.03 0.08 0.00 94 1024.9
20260505100651 52 248 0.0 0.0 0.02 0.06 0.00 93 1024.9
20260505100151 52 248 0.0 0.0 0.02 0.06 0.00 93 1024.9
20260505095651 52 248 0.0 0.0 0.03 0.03 0.00 93 1024.9
20260505095151 52 248 1.7 3.5 0.02 0.02 0.00 93 1024.9
20260505094652 52 248 1.7 1.7 0.02 0.02 0.00 93 1024.9
20260505094151 52 225 1.7 3.5 0.02 0.02 0.00 93 1024.9
20260505093651 52 225 1.7 1.7 0.00 0.00 0.00 93 1024.9
20260505093151 53 225 1.7 3.5 0.00 0.00 0.00 92 1024.9
20260505092651 53 248 1.7 3.5 0.00 0.00 0.00 92 1024.9
20260505092151 53 248 1.7 1.7 0.00 0.00 0.00 92 1024.9
20260505091651 53 248 0.0 1.7 0.00 0.00 0.00 91 1024.5
20260505091151 53 248 0.0 0.0 0.00 0.00 0.00 91 1024.5
20260505090652 53 248 0.9 3.5 0.00 0.00 0.00 90 1024.5
20260505090152 54 248 1.7 1.7 0.00 0.00 0.00 89 1024.5
20260505085652 54 293 1.7 1.7 0.00 0.00 0.00 89 1024.5
20260505085151 55 293 1.7 1.7 0.00 0.00 0.00 89 1024.5
20260505084652 55 293 1.7 1.7 0.00 0.00 0.00 89 1024.5
20260505084151 54 293 1.7 1.7 0.00 0.00 0.00 90 1024.5
20260505083651 54 158 0.0 0.0 0.00 0.00 0.00 90 1024.5
20260505083151 54 225 1.7 1.7 0.00 0.00 0.00 89 1024.5
20260505082651 54 315 2.6 3.5 0.00 0.00 0.00 89 1024.5
20260505082151 55 293 2.6 1.7 0.00 0.00 0.00 87 1024.5
20260505082031 55 293 1.7 3.5 0.00 0.00 0.00 88 1024.5
20260505081531 56 315 0.9 1.7 0.00 0.00 0.00 89 1024.5
20260505081031 56 338 2.6 3.5 0.00 0.00 0.00 88 1024.5
20260505080531 56 315 0.0 0.0 0.00 0.00 0.00 90 1024.5
20260505080031 56 315 0.9 1.7 0.00 0.00 0.00 89 1023.8
20260505080005 55 315 1.7 0.0 0.02 0.63 0.00 89 1024.5
20260505075504 55 315 0.0 0.0 0.02 0.63 0.00 91 1024.5
20260505075001 55 315 0.0 0.0 0.02 0.63 0.00 93 1024.5
20260505074501 54 315 0.9 0.0 0.02 0.63 0.00 93 1024.5
20260505074001 53 315 0.0 0.0 0.00 0.61 0.00 93 1024.5
20260505073501 53 315 0.0 0.0 0.00 0.61 0.00 93 1024.9
20260505073001 52 315 0.0 0.0 0.00 0.61 0.00 94 1024.9
20260505072501 52 315 0.0 0.0 0.00 0.61 0.00 94 1024.9
20260505072001 52 315 0.0 0.0 0.00 0.61 0.00 94 1024.9
20260505071501 52 315 0.0 0.0 0.00 0.61 0.00 94 1024.9
20260505071001 51 315 0.0 0.0 0.00 0.61 0.00 94 1024.9
20260505070501 51 315 0.0 0.0 0.00 0.61 0.00 94 1024.9
20260505070001 51 315 0.0 0.0 0.13 0.61 0.00 94 1024.9
20260505065501 51 315 0.9 1.7 0.13 0.61 0.00 94 1024.9
20260505065001 51 315 0.9 1.7 0.13 0.61 0.00 94 1024.9
20260505064501 51 315 0.9 1.7 0.13 0.61 0.00 94 1024.9
20260505064001 51 315 1.7 1.7 0.13 0.61 0.00 94 1024.9
20260505063501 51 315 0.9 1.7 0.13 0.61 0.00 95 1024.9
20260505063001 50 360 0.0 0.0 0.11 0.60 0.00 95 1024.9
20260505062501 50 315 0.9 1.7 0.11 0.60 0.00 95 1024.9
20260505062001 50 315 0.9 1.7 0.09 0.58 0.00 94 1024.9
20260505061501 50 315 0.9 0.0 0.06 0.55 0.00 94 1024.9
20260505061001 50 315 0.0 1.7 0.05 0.54 0.00 94 1024.9
20260505060501 50 338 0.9 0.0 0.03 0.52 0.00 93 1024.9
20260505060001 50 68 0.0 0.0 0.33 0.49 0.00 94 1024.9
20260505055501 51 68 1.7 3.5 0.30 0.46 0.00 94 1024.9
20260505055001 51 23 0.0 1.7 0.25 0.41 0.00 94 1024.9
20260505054001 51 23 1.7 1.7 0.19 0.35 0.00 94 1024.9
20260505053501 51 293 0.9 0.0 0.17 0.33 0.00 94 1024.9
20260505053001 51 293 0.9 0.0 0.14 0.30 0.00 94 1024.9
20260505052502 51 23 1.7 3.5 0.13 0.28 0.00 94 1024.9
20260505052001 51 248 0.9 1.7 0.09 0.25 0.00 94 1024.9
20260505051501 51 248 1.7 1.7 0.06 0.22 0.00 94 1024.9
20260505051001 51 293 0.9 1.7 0.05 0.20 0.00 94 1024.9
20260505050501 51 293 1.7 1.7 0.03 0.19 0.00 93 1024.9
20260505041411 52 315 1.7 1.7 0.08 0.19 0.00 94 1024.9
20260505040911 52 270 2.6 3.5 0.03 0.14 0.00 94 1024.9
20260505040411 52 338 1.7 1.7 0.02 0.13 0.00 94 1024.9
20260505035911 52 315 0.0 0.0 0.11 0.11 0.00 93 1024.9
20260505035411 52 315 0.9 0.0 0.11 0.11 0.00 93 1024.9
20260505034911 52 113 0.9 0.0 0.09 0.09 0.00 93 1024.9